This demonstration page uses our WeatherBlox Daily Observations layout. Learn more.

Left ArrowRight Arrow

39.08367, -84.50855

Hourly Observations for March 3, 2016

Temp ( °F °C ) Dew Point ( °F °C ) Humidity (%) Winds ( mph kmh ) Pressure ( in mb ) Visibility ( mi km ) Precip ( " mm )
12:53 am 00:53 Partly Cloudy 28 -2.2 22 -5.6 78 78 N N/A 30.2 1023 10 16.0934 N/A
1:53 am 01:53 Mostly Cloudy 28 -2.2 23 -5 81 81 N N/A 30.21 1023 10 16.0934 N/A
2:53 am 02:53 Cloudy 28 -2.2 23 -5 81 81 N N/A 30.19 1023 10 16.0934 N/A
3:53 am 03:53 Cloudy 28 -2.2 24 -4.4 85 85 N N/A 30.17 1022 10 16.0934 N/A
4:53 am 04:53 Cloudy 30 -1.1 24 -4.4 79 79 N N/A 30.16 1021 10 16.0934 N/A
5:53 am 05:53 Cloudy 31 -0.6 26 -3.3 82 82 N N/A 30.16 1022 10 16.0934 N/A
6:53 am 06:53 Cloudy with Light Snow 30 -1.1 27 -2.8 88 88 S 7 11 30.17 1022 4 6.43736 N/A
7:15 am 07:15 Cloudy with Light Snow 30 -1.1 28 -2.2 92 92 SW 5 7 30.21 1023 2 3.21868 N/A
7:53 am 07:53 Cloudy with Light Snow 30 -1.1 29 -1.7 96 96 N N/A 30.16 1021 2 3.21868 N/A
8:27 am 08:27 Cloudy with Light Snow 31 -0.6 29 -1.7 92 92 N N/A 30.18 1022 5 8.0467 N/A
8:53 am 08:53 Cloudy 32 undefined 29 -1.7 88 88 E 6 9 30.15 1021 7 11.26538 N/A
9:24 am 09:24 Cloudy 34 1 28 -2 81 81 N N/A 30.18 1022 10 16.0934 N/A
9:53 am 09:53 Cloudy 34 1.1 30 -1.1 85 85 SSE 8 13 30.15 1021 10 16.0934 N/A
10:18 am 10:18 Cloudy 36 2 28 -2 75 75 SSE 10 17 30.15 1021 10 16.0934 N/A
10:53 am 10:53 Cloudy with Light Snow 35 1.7 29 -1.7 78 78 SSE 9 15 30.14 1021 7 11.26538 N/A
11:47 am 11:47 Cloudy with Light Snow 34 1 30 -1 87 87 VRB 6 9 30.12 1020 2.5 4.02335 N/A
11:53 am 11:53 Cloudy with Light Snow 34 1.1 31 -0.6 89 89 SSE 6 9 30.14 1021 2 3.21868 0.01 0.254
12:21 pm 12:21 Cloudy with Light Snow 33 0.6 31 -0.6 92 92 SSE 7 11 30.12 1020 1 1.60934 N/A
12:53 pm 12:53 Cloudy with Light Snow 33 0.6 32 undefined 96 96 S 3 6 30.12 1020 1 1.60934 0.02 0.508
1:15 pm 13:15 Cloudy with Light Snow 33 0.6 32 undefined 96 96 S 5 7 30.09 1019 1 1.60934 0.01 0.254
1:32 pm 13:32 Cloudy with Light Snow 32 undefined 32 undefined 100 100 S 5 7 30.12 1020 0.75 1.207005 0.03 0.762
1:46 pm 13:46 Cloudy with Light Snow 32 undefined 32 undefined 100 100 S 6 9 30.12 1020 0.75 1.207005 N/A
1:53 pm 13:53 Cloudy with Light Snow 33 0.6 32 undefined 96 96 S 5 7 30.09 1019 1 1.60934 0.04 1.016
2:42 pm 14:42 Cloudy with Light Snow 33 0.6 33 0.6 100 100 SSE 5 7 30.06 1018 1 1.60934 0.02 0.508
2:53 pm 14:53 Cloudy with Light Snow 34 1.1 33 0.6 97 97 SSE 3 6 30.07 1018 1.75 2.816345 0.03 0.762
3:07 pm 15:07 Cloudy with Light Snow 34 1.1 33 0.6 97 97 E 5 7 30.06 1018 2 3.21868 N/A
3:20 pm 15:20 Cloudy with Light Snow 34 1 34 1 100 100 N N/A 30.06 1018 2 3.21868 N/A
3:53 pm 15:53 Cloudy with Light Snow 34 1.1 33 0.6 97 97 ESE 3 6 30.05 1018 2 3.21868 0.02 0.508
4:10 pm 16:10 Cloudy with Light Snow 33 0.6 32 undefined 96 96 ESE 5 7 30.03 1017 1.25 2.011675 0.01 0.254
4:22 pm 16:22 Cloudy with Light Snow 34 1 32 undefined 93 93 N N/A 30.03 1017 0.75 1.207005 N/A
4:39 pm 16:39 Cloudy with Light Snow 32 undefined 32 undefined 100 100 N N/A 30.06 1018 1 1.60934 0.05 1.27
4:53 pm 16:53 Cloudy with Snow 32 undefined 32 undefined 100 100 N N/A 30.04 1017 0.5 0.80467 0.07 1.778
5:53 pm 17:53 Cloudy with Mist and Fog 33 0.6 32 undefined 96 96 N N/A 30.04 1017 2 3.21868 0.02 0.508
6:38 pm 18:38 Cloudy 34 1 34 1 100 100 N N/A 30.03 1017 8 12.87472 N/A
6:53 pm 18:53 Cloudy 33 0.6 32 undefined 96 96 N N/A 30.06 1018 9 14.48406 N/A
7:53 pm 19:53 Cloudy with Mist and Fog 33 0.6 33 0.6 100 100 N N/A 30.06 1018 4 6.43736 N/A
8:53 pm 20:53 Cloudy with Mist and Fog 33 0.6 33 0.6 100 100 N N/A 30.06 1018 5 8.0467 N/A
9:05 pm 21:05 Cloudy with Mist and Fog 33 0.6 33 0.6 100 100 SSW 5 7 30.06 1018 5 8.0467 N/A
9:38 pm 21:38 Cloudy 34 1 34 1 100 100 SW 3 6 30.06 1018 8 12.87472 N/A
9:53 pm 21:53 Cloudy with Mist and Fog 33 0.6 33 0.6 100 100 N N/A 30.07 1018 6 9.65604 N/A
10:53 pm 22:53 Cloudy with Mist and Fog 33 0.6 33 0.6 100 100 SSE 5 7 30.06 1018 6 9.65604 N/A
11:03 pm 23:03 Cloudy 34 1 34 1 100 100 SSE 3 6 30.03 1017 7 11.26538 N/A
11:34 pm 23:34 Cloudy 34 1 34 1 100 100 SSW 3 6 30.03 1017 8 12.87472 N/A
11:53 pm 23:53 Cloudy 33 0.6 33 0.6 100 100 S 5 7 30.06 1018 8 12.87472 N/A

Powered by AerisWeather